PERPET Weather Reports


time (UTC)temp
C
wind
direction
speed
KPH
gust
KPH
rain 1hr
cm
rain 24hr
cm
rain mn
cm
humidity
%
barometer
mb
20260505153253 10 0 0.0 0.0 0.03 0.08 0.08 1015.8
20260505152754 10 0 0.0 0.0 0.03 0.08 0.08 1015.8
20260505152254 10 0 0.0 0.0 0.03 0.08 0.08 1015.9
20260505151753 10 0 0.0 0.0 0.03 0.08 0.08 1015.8
20260505150752 10 0 0.0 0.0 0.00 0.10 0.05 1015.7
20260505150252 10 0 0.0 0.0 0.00 0.10 0.05 1015.8
20260505140253 10 0 0.0 8.0 0.00 0.10 0.05 1015.3
20260505130253 10 168 0.0 16.1 0.00 0.13 0.05 1014.8
20260505124752 10 197 1.6 14.5 0.00 0.13 0.05 1014.8
20260505123755 10 134 3.2 11.3 0.00 0.13 0.05 1014.7
20260505123752 10 134 3.2 11.3 0.00 0.13 0.05 1014.7
20260505123252 10 197 1.6 11.3 0.00 0.13 0.05 1014.7
20260505122752 10 201 0.0 9.7 0.00 0.13 0.05 1014.7
20260505122253 10 205 0.0 9.7 0.00 0.13 0.05 1014.7
20260505121751 10 189 1.6 9.7 0.00 0.13 0.05 1014.7
20260505121252 10 184 0.0 12.9 0.00 0.13 0.05 1014.7
20260505120751 10 128 0.0 12.9 0.00 0.15 0.05 1014.7
20260505115752 10 191 4.8 12.9 0.00 0.15 0.05 1014.6
20260505115252 10 180 0.0 14.5 0.00 0.15 0.05 1014.6
20260505114751 10 205 3.2 14.5 0.00 0.15 0.05 1014.6
20260505114251 10 232 3.2 14.5 0.00 0.15 0.05 1014.5
20260505113756 10 175 3.2 12.9 0.00 0.15 0.05 1014.6
20260505113751 10 175 3.2 12.9 0.00 0.15 0.05 1014.6
20260505112751 10 221 4.8 20.9 0.00 0.15 0.05 1014.6
20260505112252 10 204 1.6 20.9 0.00 0.15 0.05 1014.6
20260505111751 10 222 1.6 16.1 0.00 0.15 0.05 1014.5
20260505110752 10 228 6.4 22.5 0.03 0.20 0.05 1014.6
20260505110253 10 228 9.7 22.5 0.03 0.20 0.05 1014.6
20260505101752 10 172 1.6 17.7 0.03 0.20 0.05 1014.5
20260505101251 10 218 9.7 17.7 0.03 0.20 0.05 1014.3
20260505100751 10 210 0.0 9.7 0.00 0.20 0.05 1014.4
20260505095751 10 142 0.0 16.1 0.00 0.20 0.03 1014.5
20260505095254 10 124 0.0 16.1 0.00 0.20 0.03 1014.5
20260505094751 10 187 3.2 16.1 0.00 0.20 0.03 1014.4
20260505094251 10 165 8.0 20.9 0.00 0.20 0.03 1014.3
20260505093751 10 184 1.6 20.9 0.00 0.20 0.03 1014.2
20260505090751 10 190 8.0 22.5 0.00 0.20 0.03 1014.1
20260505085752 10 187 6.4 20.9 0.00 0.20 0.03 1014.1
20260505084751 10 184 6.4 17.7 0.00 0.20 0.03 1014.1
20260505083751 10 203 9.7 20.9 0.00 0.20 0.03 1014.1
20260505082751 10 182 8.0 20.9 0.00 0.20 0.03 1014.2
20260505081751 10 226 6.4 29.0 0.03 0.20 0.03 1014.1
20260505080754 10 196 9.7 29.0 0.03 0.20 0.03 1014.2
20260505080751 10 196 9.7 29.0 0.03 0.20 0.03 1014.2
20260505080252 9 215 9.7 29.0 0.03 0.20 0.03 1014.2
20260505075751 9 191 9.7 29.0 0.03 0.20 0.03 1014.2
20260505075252 9 200 12.9 29.0 0.03 0.20 0.03 1014.2
20260505074251 10 148 11.3 25.7 0.03 0.20 0.03 1014.3
20260505073751 9 226 14.5 25.7 0.03 0.20 0.03 1014.2
20260505073251 9 189 8.0 19.3 0.03 0.20 0.03 1014.2
20260505072751 10 211 9.7 19.3 0.03 0.20 0.03 1014.2
20260505072252 10 204 8.0 17.7 0.03 0.20 0.03 1014.2
20260505071750 10 190 6.4 27.4 0.00 0.20 0.03 1014.2
20260505070750 10 210 6.4 27.4 0.00 0.23 0.00 1014.2
20260505070252 10 200 4.8 17.7 0.00 0.23 0.20 1014.2
20260505065750 10 215 6.4 17.7 0.00 0.23 0.20 1014.3
20260505064750 10 190 3.2 17.7 0.00 0.23 0.20 1014.4
20260505064252 10 193 9.7 17.7 0.00 0.23 0.20 1014.4
20260505063750 10 260 8.0 25.7 0.00 0.23 0.20 1014.4
20260505062750 10 207 6.4 25.7 0.00 0.23 0.20 1014.3
20260505061750 10 207 6.4 19.3 0.00 0.23 0.20 1014.2
20260505060751 10 183 6.4 16.1 0.00 0.23 0.20 1014.3
20260505055750 10 197 3.2 25.7 0.00 0.23 0.20 1014.3
20260505055252 10 151 11.3 25.7 0.00 0.23 0.20 1014.3
20260505054750 10 191 9.7 19.3 0.00 0.23 0.20 1014.4
20260505054250 10 224 4.8 20.9 0.00 0.23 0.20 1014.5
20260505053750 10 186 0.0 20.9 0.00 0.23 0.20 1014.5
20260505053250 10 210 9.7 20.9 0.00 0.23 0.20 1014.4
20260505052750 10 186 9.7 20.9 0.00 0.23 0.20 1014.5
20260505052253 10 205 8.0 22.5 0.00 0.23 0.20 1014.3
20260505051750 10 170 9.7 22.5 0.00 0.23 0.20 1014.3
20260505051250 10 231 8.0 22.5 0.00 0.23 0.20 1014.4
20260505050750 10 175 11.3 20.9 0.00 0.25 0.20 1014.3
20260505050250 10 215 9.7 17.7 0.00 0.25 0.20 1014.3
20260505041750 10 205 8.0 20.9 0.00 0.25 0.20 1013.9
20260505041250 10 212 6.4 20.9 0.00 0.25 0.20 1013.8
20260505040750 9 180 11.3 24.1 0.00 0.33 0.20 1013.6
20260505040250 10 200 9.7 24.1 0.00 0.33 0.20 1013.6
20260505035750 10 194 11.3 24.1 0.00 0.33 0.20 1013.5
20260505035258 10 249 11.3 24.1 0.00 0.33 0.20 1013.5
20260505035250 10 249 11.3 24.1 0.00 0.33 0.20 1013.5
20260505034750 10 219 9.7 29.0 0.00 0.33 0.20 1013.5
20260505034250 9 182 11.3 29.0 0.00 0.33 0.20 1013.5
20260505033750 10 191 12.9 29.0 0.00 0.33 0.20 1013.5
20260505033250 9 204 12.9 24.1 0.00 0.33 0.20 1013.4
20260505032750 10 187 11.3 27.4 0.00 0.33 0.20 1013.5
20260505032255 10 189 14.5 27.4 0.00 0.33 0.20 1013.5
20260505032250 10 189 14.5 27.4 0.00 0.33 0.20 1013.5
20260505031750 10 207 12.9 27.4 0.00 0.33 0.20 1013.4
20260505031250 10 187 9.7 24.1 0.00 0.33 0.20 1013.4
20260505030750 10 170 9.7 24.1 0.00 0.41 0.20 1013.3
20260505030250 10 201 14.5 22.5 0.00 0.41 0.20 1013.2
20260505025750 10 225 12.9 27.4 0.00 0.41 0.20 1013.2
20260505024750 10 214 12.9 27.4 0.00 0.41 0.20 1013.1
20260505024250 10 179 14.5 30.6 0.00 0.41 0.20 1013.1
20260505023752 10 218 12.9 30.6 0.00 0.41 0.20 1013.2
20260505023251 10 240 11.3 30.6 0.00 0.41 0.20 1013.2
20260505022749 10 225 14.5 30.6 0.00 0.41 0.20 1013.1
20260505022250 10 183 14.5 32.2 0.00 0.41 0.20 1013.1
20260505021749 10 187 14.5 32.2 0.00 0.41 0.20 1013.0
20260505021249 10 212 16.1 32.2 0.00 0.41 0.20 1013.0
20260505020750 10 217 14.5 32.2 0.00 0.41 0.20 1012.9
20260505020250 10 200 11.3 27.4 0.00 0.41 0.20 1013.0
20260505015749 10 173 16.1 27.4 0.00 0.41 0.20 1013.0
20260505015250 10 193 14.5 33.8 0.00 0.41 0.20 1013.0
20260505014749 10 217 14.5 33.8 0.00 0.41 0.20 1013.0
20260505014249 10 200 17.7 33.8 0.00 0.41 0.20 1012.9
20260505013749 10 187 17.7 33.8 0.00 0.41 0.20 1013.0
20260505013249 10 205 17.7 33.8 0.00 0.41 0.20 1013.1
20260505012749 10 193 16.1 37.0 0.00 0.41 0.20 1013.1
20260505012250 10 191 16.1 37.0 0.00 0.41 0.20 1013.2
20260505011749 10 232 24.1 37.0 0.00 0.41 0.20 1013.3
20260505011249 10 189 19.3 32.2 0.00 0.41 0.20 1013.4
20260505010749 10 231 19.3 41.8 0.00 0.41 0.20 1013.4
20260505010249 10 207 14.5 41.8 0.00 0.41 0.20 1013.6
20260505005250 10 212 22.5 35.4 0.00 0.41 0.20 1013.5
20260505004749 10 219 17.7 35.4 0.00 0.41 0.20 1013.4
20260505004249 11 208 20.9 35.4 0.00 0.41 0.20 1013.5
20260505003749 11 214 19.3 35.4 0.00 0.41 0.20 1013.6
20260505003249 10 214 17.7 33.8 0.00 0.41 0.20 1013.6
20260505002749 10 187 17.7 32.2 0.00 0.41 0.20 1013.5
20260505002251 11 221 16.1 37.0 0.00 0.41 0.20 1013.6
20260505001749 11 149 19.3 37.0 0.00 0.41 0.20 1013.6
20260505000749 10 214 19.3 38.6 0.00 0.41 0.20 1013.6
20260505000249 10 212 17.7 38.6 0.00 0.41 0.20 1013.6
20260504235749 11 186 16.1 38.6 0.00 0.41 0.20 1013.6
20260504235250 11 208 16.1 38.6 0.00 0.41 0.20 1013.6
20260504234750 11 193 19.3 38.6 0.00 0.41 0.20 1013.6
20260504233749 11 184 16.1 38.6 0.00 0.41 0.20 1013.6
20260504233249 11 228 20.9 38.6 0.00 0.41 0.20 1013.6
20260504232749 11 183 19.3 38.6 0.00 0.41 0.20 1013.6
20260504232249 11 191 17.7 37.0 0.00 0.41 0.20 1013.6
20260504231749 11 226 22.5 37.0 0.00 0.41 0.20 1013.8
20260504230749 11 229 19.3 30.6 0.00 0.41 0.20 1013.9
20260504230249 11 196 17.7 29.0 0.00 0.41 0.20 1013.9
20260504225749 11 207 16.1 35.4 0.00 0.41 0.20 1014.0
20260504224749 11 177 17.7 35.4 0.00 0.41 0.20 1014.1
20260504224249 11 203 17.7 30.6 0.00 0.41 0.20 1014.1
20260504223749 11 203 16.1 37.0 0.00 0.41 0.20 1014.1
20260504223249 12 180 16.1 37.0 0.00 0.41 0.20 1014.2
20260504222749 11 197 16.1 37.0 0.00 0.41 0.20 1014.3
20260504222249 11 189 17.7 35.4 0.00 0.41 0.20 1014.4
20260504221749 11 219 19.3 35.4 0.00 0.41 0.20 1014.4
20260504221249 11 208 12.9 33.8 0.00 0.41 0.20 1014.4
20260504220749 11 215 9.7 33.8 0.00 0.41 0.20 1014.5
20260504215249 11 217 16.1 32.2 0.00 0.41 0.20 1014.5
20260504214749 11 197 12.9 35.4 0.00 0.41 0.20 1014.6
20260504214249 11 210 19.3 35.4 0.00 0.41 0.20 1014.6
20260504213748 11 182 14.5 35.4 0.00 0.41 0.20 1014.6
20260504213248 11 194 14.5 29.0 0.00 0.41 0.20 1014.6
20260504212748 11 204 19.3 27.4 0.00 0.41 0.20 1014.6
20260504212249 11 179 16.1 25.7 0.00 0.41 0.20 1014.6
20260504211749 11 184 12.9 30.6 0.00 0.41 0.20 1014.7
20260504211248 11 208 0.0 30.6 0.00 0.41 0.20 1014.6
20260504210748 11 210 16.1 30.6 0.00 0.41 0.20 1014.6
20260504205748 11 176 20.9 29.0 0.00 0.41 0.20 1014.6
20260504205249 11 180 17.7 29.0 0.00 0.41 0.20 1014.5
20260504204748 11 194 14.5 29.0 0.00 0.41 0.20 1014.5
20260504203748 11 208 16.1 30.6 0.00 0.41 0.20 1014.5
20260504203249 11 214 16.1 30.6 0.00 0.41 0.20 1014.7
20260504202748 11 201 12.9 29.0 0.00 0.41 0.20 1014.6
20260504202250 11 198 12.9 29.0 0.00 0.41 0.20 1014.6
20260504201748 11 204 14.5 27.4 0.00 0.41 0.20 1014.7
20260504201248 10 187 12.9 25.7 0.00 0.41 0.20 1014.7
20260504200748 11 187 12.9 25.7 0.00 0.41 0.20 1014.6
20260504200248 10 204 14.5 29.0 0.00 0.41 0.20 1014.5
20260504195748 10 168 12.9 29.0 0.00 0.41 0.20 1014.6
20260504195249 10 208 14.5 29.0 0.00 0.41 0.20 1014.5
20260504194748 10 231 16.1 29.0 0.00 0.41 0.20 1014.5
20260504194248 10 190 14.5 29.0 0.00 0.41 0.20 1014.4
20260504193748 10 203 12.9 27.4 0.00 0.41 0.20 1014.3
20260504192748 10 183 9.7 22.5 0.00 0.41 0.20 1014.4
20260504192249 11 212 12.9 22.5 0.00 0.41 0.20 1014.3
20260504191248 10 191 9.7 25.7 0.00 0.41 0.20 1014.3
20260504190748 10 176 11.3 25.7 0.00 0.41 0.20 1014.4
20260504190248 10 226 14.5 22.5 0.00 0.41 0.20 1014.3
20260504185748 11 201 11.3 24.1 0.00 0.41 0.20 1014.4
20260504184748 10 208 9.7 24.1 0.00 0.41 0.20 1014.5
20260504184248 11 197 11.3 19.3 0.00 0.41 0.20 1014.5
20260504183249 10 191 4.8 25.7 0.00 0.41 0.20 1014.5
20260504182748 10 145 8.0 25.7 0.00 0.41 0.20 1014.5
20260504182248 10 215 11.3 25.7 0.00 0.41 0.20 1014.4
20260504181748 10 218 12.9 22.5 0.00 0.41 0.20 1014.5
20260504181248 10 211 12.9 20.9 0.00 0.41 0.20 1014.4
20260504180748 10 214 9.7 20.9 0.00 0.41 0.20 1014.4
20260504180248 10 193 9.7 20.9 0.00 0.41 0.20 1014.4
20260504175248 10 175 11.3 25.7 0.00 0.41 0.20 1014.4
20260504174248 10 208 6.4 24.1 0.00 0.41 0.20 1014.4
20260504173748 10 184 9.7 24.1 0.00 0.41 0.20 1014.4
20260504172748 10 163 9.7 20.9 0.00 0.41 0.20 1014.4
20260504172248 11 217 0.0 20.9 0.00 0.41 0.20 1014.3
20260504171248 11 190 4.8 17.7 0.00 0.41 0.20 1014.3
20260504170747 10 204 6.4 22.5 0.00 0.41 0.20 1014.3
20260504170248 10 172 8.0 22.5 0.00 0.41 0.20 1014.2
20260504160247 10 201 1.6 24.1 0.00 0.41 0.20 1013.9